TimeEST,TemperatureF,Dew PointF,Humidity,Sea Level PressureIn,VisibilityMPH,Wind Direction,Wind SpeedMPH,Gust SpeedMPH,PrecipitationIn,Events,Conditions,WindDirDegrees,DateUTC
12:15 AM,32.0,32.0,100,30.06,10.0,West,4.6,-,N/A,,Overcast,260,2012-11-04 04:15:00
12:35 AM,32.0,32.0,100,30.05,10.0,West,6.9,-,N/A,,Overcast,270,2012-11-04 04:35:00
12:55 AM,33.8,32.0,93,30.04,10.0,WSW,3.5,-,N/A,,Overcast,250,2012-11-04 04:55:00
1:15 AM,33.8,32.0,93,30.04,10.0,West,3.5,-,N/A,,Overcast,260,2012-11-04 05:15:00
1:35 AM,33.8,32.0,93,30.03,10.0,West,3.5,-,N/A,,Overcast,260,2012-11-04 05:35:00
1:55 AM,33.8,30.2,87,30.02,10.0,WNW,3.5,-,N/A,,Overcast,300,2012-11-04 05:55:00
1:15 AM,33.8,30.2,87,30.03,10.0,West,5.8,-,N/A,,Overcast,280,2012-11-04 06:15:00
1:35 AM,33.8,32.0,93,30.02,10.0,Calm,Calm,-,N/A,,Overcast,0,2012-11-04 06:35:00
1:55 AM,33.8,32.0,93,30.01,10.0,West,4.6,-,N/A,,Overcast,260,2012-11-04 06:55:00
2:15 AM,33.8,30.2,87,30.02,10.0,Calm,Calm,-,N/A,,Overcast,0,2012-11-04 07:15:00
2:35 AM,33.8,33.8,100,30.02,10.0,South,4.6,-,N/A,,Overcast,190,2012-11-04 07:35:00
2:55 AM,33.8,33.8,100,30.01,10.0,South,3.5,-,N/A,,Overcast,170,2012-11-04 07:55:00
3:15 AM,33.8,33.8,100,30.01,10.0,SSW,5.8,-,N/A,,Overcast,210,2012-11-04 08:15:00
3:35 AM,35.6,33.8,93,30.00,10.0,SSW,3.5,-,N/A,,Overcast,200,2012-11-04 08:35:00
3:55 AM,33.8,33.8,100,30.00,7.0,West,5.8,-,N/A,,Overcast,270,2012-11-04 08:55:00
4:15 AM,35.6,33.8,93,30.00,10.0,South,3.5,-,N/A,,Overcast,190,2012-11-04 09:15:00
4:35 AM,33.8,33.8,100,30.01,10.0,Calm,Calm,-,N/A,,Overcast,0,2012-11-04 09:35:00
4:55 AM,35.6,33.8,93,30.01,10.0,SW,5.8,-,N/A,,Overcast,230,2012-11-04 09:55:00
5:15 AM,37.4,35.6,93,30.01,10.0,WSW,6.9,-,N/A,,Overcast,240,2012-11-04 10:15:00
5:35 AM,37.4,35.6,93,30.01,10.0,West,6.9,-,N/A,,Overcast,260,2012-11-04 10:35:00
5:55 AM,37.4,35.6,93,30.01,10.0,West,4.6,-,N/A,,Overcast,270,2012-11-04 10:55:00
6:15 AM,35.6,35.6,100,30.00,10.0,West,3.5,-,N/A,,Overcast,260,2012-11-04 11:15:00
6:35 AM,35.6,33.8,93,30.01,7.0,Calm,Calm,-,N/A,,Overcast,0,2012-11-04 11:35:00
6:55 AM,35.6,35.6,100,30.01,7.0,WSW,4.6,-,N/A,,Overcast,250,2012-11-04 11:55:00
7:15 AM,35.6,35.6,100,30.02,10.0,WSW,4.6,-,N/A,,Overcast,240,2012-11-04 12:15:00
7:35 AM,35.6,35.6,100,30.02,2.5,SW,5.8,-,N/A,,Overcast,220,2012-11-04 12:35:00
7:55 AM,35.6,35.6,100,30.02,0.2,WSW,4.6,-,N/A,Fog,Fog,240,2012-11-04 12:55:00
8:15 AM,35.6,35.6,100,30.03,0.2,West,5.8,-,N/A,Fog,Fog,280,2012-11-04 13:15:00
8:35 AM,33.8,33.8,100,30.03,0.2,Calm,Calm,-,N/A,Fog,Fog,0,2012-11-04 13:35:00
8:55 AM,35.6,35.6,100,30.03,0.2,WSW,5.8,-,N/A,Fog,Fog,250,2012-11-04 13:55:00
9:15 AM,37.4,37.4,100,30.02,0.5,SW,4.6,-,N/A,Fog,Fog,230,2012-11-04 14:15:00
9:35 AM,37.4,37.4,100,30.02,5.0,WSW,4.6,-,N/A,,Overcast,250,2012-11-04 14:35:00
9:55 AM,37.4,37.4,100,30.02,2.5,West,4.6,-,N/A,,Overcast,260,2012-11-04 14:55:00
10:15 AM,35.6,35.6,100,30.02,0.2,WNW,5.8,-,N/A,Fog,Fog,290,2012-11-04 15:15:00
10:35 AM,35.6,35.6,100,30.02,0.2,West,5.8,-,N/A,Fog,Fog,270,2012-11-04 15:35:00
10:55 AM,35.6,35.6,100,30.02,0.2,West,5.8,-,N/A,Fog,Fog,270,2012-11-04 15:55:00
11:15 AM,37.4,37.4,100,30.01,10.0,West,5.8,-,N/A,,Overcast,260,2012-11-04 16:15:00
11:35 AM,39.2,37.4,93,30.01,10.0,West,6.9,-,N/A,,Mostly Cloudy,280,2012-11-04 16:35:00
11:55 AM,39.2,37.4,93,30.00,10.0,West,8.1,-,N/A,,Mostly Cloudy,270,2012-11-04 16:55:00
12:15 PM,39.2,35.6,87,30.00,10.0,WNW,8.1,-,N/A,,Scattered Clouds,290,2012-11-04 17:15:00
12:35 PM,41.0,35.6,81,29.99,10.0,WNW,10.4,-,N/A,,Clear,290,2012-11-04 17:35:00
12:55 PM,42.8,35.6,76,29.99,10.0,WNW,6.9,-,N/A,,Scattered Clouds,290,2012-11-04 17:55:00
1:15 PM,42.8,37.4,81,29.99,10.0,WNW,8.1,-,N/A,,Scattered Clouds,290,2012-11-04 18:15:00
1:35 PM,42.8,35.6,76,29.98,10.0,West,8.1,-,N/A,,Mostly Cloudy,260,2012-11-04 18:35:00
1:55 PM,44.6,37.4,76,29.98,10.0,WNW,6.9,-,N/A,,Overcast,290,2012-11-04 18:55:00
2:15 PM,42.8,33.8,70,29.98,10.0,NW,9.2,-,N/A,,Mostly Cloudy,310,2012-11-04 19:15:00
2:35 PM,44.6,33.8,66,29.97,10.0,West,11.5,-,N/A,,Scattered Clouds,270,2012-11-04 19:35:00
2:55 PM,44.6,30.2,57,29.98,10.0,WNW,6.9,-,N/A,,Clear,300,2012-11-04 19:55:00
3:15 PM,44.6,28.4,53,29.98,10.0,WNW,8.1,-,N/A,,Clear,290,2012-11-04 20:15:00
3:35 PM,44.6,26.6,49,29.98,10.0,NW,3.5,-,N/A,,Clear,320,2012-11-04 20:35:00
3:55 PM,44.6,24.8,46,29.98,10.0,NNW,6.9,-,N/A,,Clear,330,2012-11-04 20:55:00
4:15 PM,42.8,23.0,46,29.99,10.0,NW,9.2,-,N/A,,Clear,310,2012-11-04 21:15:00
4:35 PM,42.8,23.0,46,29.99,10.0,NW,6.9,-,N/A,,Clear,310,2012-11-04 21:35:00
4:55 PM,41.0,21.2,45,29.99,10.0,WNW,9.2,18.4,N/A,,Clear,300,2012-11-04 21:55:00
5:15 PM,39.2,23.0,52,29.99,10.0,NW,12.7,-,N/A,,Clear,320,2012-11-04 22:15:00
5:35 PM,37.4,23.0,56,29.99,10.0,NW,11.5,16.1,N/A,,Clear,310,2012-11-04 22:35:00
5:55 PM,35.6,24.8,65,29.99,10.0,NW,10.4,16.1,N/A,,Clear,310,2012-11-04 22:55:00
6:15 PM,35.6,24.8,65,30.00,10.0,NW,12.7,18.4,N/A,,Clear,310,2012-11-04 23:15:00
6:35 PM,35.6,26.6,70,30.00,10.0,NW,8.1,19.6,N/A,,Clear,320,2012-11-04 23:35:00
6:55 PM,33.8,26.6,75,30.01,10.0,NW,9.2,-,N/A,,Clear,310,2012-11-04 23:55:00
7:15 PM,33.8,26.6,75,30.02,10.0,NW,12.7,-,N/A,,Clear,320,2012-11-05 00:15:00
7:35 PM,33.8,26.6,75,30.01,10.0,NW,12.7,-,N/A,,Clear,320,2012-11-05 00:35:00
7:55 PM,33.8,26.6,75,30.01,10.0,NNW,8.1,-,N/A,,Clear,330,2012-11-05 00:55:00
8:15 PM,32.0,26.6,80,30.01,10.0,NW,8.1,-,N/A,,Clear,310,2012-11-05 01:15:00
8:35 PM,32.0,26.6,80,30.01,10.0,NW,10.4,-,N/A,,Clear,320,2012-11-05 01:35:00
8:55 PM,32.0,26.6,80,30.01,10.0,NW,9.2,-,N/A,,Clear,310,2012-11-05 01:55:00
9:15 PM,32.0,26.6,80,30.01,10.0,NW,6.9,-,N/A,,Clear,310,2012-11-05 02:15:00
9:35 PM,32.0,26.6,80,30.01,10.0,WNW,10.4,-,N/A,,Scattered Clouds,300,2012-11-05 02:35:00
9:55 PM,30.2,26.6,86,30.01,10.0,WNW,17.3,-,N/A,,Mostly Cloudy,300,2012-11-05 02:55:00
10:15 PM,30.2,26.6,86,30.02,10.0,WNW,12.7,-,N/A,,Overcast,300,2012-11-05 03:15:00
10:35 PM,30.2,26.6,86,30.01,10.0,WNW,11.5,-,N/A,,Overcast,300,2012-11-05 03:35:00
10:55 PM,30.2,26.6,86,30.01,10.0,WNW,10.4,-,N/A,,Scattered Clouds,290,2012-11-05 03:55:00